TimePDT,TemperatureF,Dew PointF,Humidity,Sea Level PressureIn,VisibilityMPH,Wind Direction,Wind SpeedMPH,Gust SpeedMPH,PrecipitationIn,Events,Conditions,WindDirDegrees,DateUTC
12:15 AM,37.4,26.6,65,30.05,10.0,SSW,13.8,-,N/A,,Unknown,200,2013-03-17 07:15:00
12:35 AM,35.6,26.6,70,30.04,10.0,SW,16.1,21.9,N/A,,Unknown,220,2013-03-17 07:35:00
12:55 AM,37.4,26.6,65,30.05,10.0,SW,12.7,-,N/A,,Unknown,230,2013-03-17 07:55:00
1:15 AM,35.6,26.6,70,30.05,10.0,SW,13.8,18.4,N/A,,Unknown,220,2013-03-17 08:15:00
1:35 AM,35.6,26.6,70,30.05,10.0,SW,15.0,-,N/A,,Unknown,230,2013-03-17 08:35:00
1:55 AM,35.6,26.6,70,30.04,10.0,SW,19.6,24.2,N/A,,Unknown,220,2013-03-17 08:55:00
2:15 AM,35.6,24.8,65,30.03,10.0,SW,18.4,26.5,N/A,,Unknown,230,2013-03-17 09:15:00
2:55 AM,33.8,24.8,70,30.04,10.0,SSW,10.4,-,N/A,,Unknown,210,2013-03-17 09:55:00
3:15 AM,33.8,24.8,70,30.04,10.0,SSW,9.2,-,N/A,,Unknown,200,2013-03-17 10:15:00
3:35 AM,33.8,24.8,70,30.05,10.0,SSW,10.4,16.1,N/A,,Unknown,210,2013-03-17 10:35:00
3:55 AM,33.8,24.8,70,30.04,10.0,SE,9.2,-,N/A,,Unknown,140,2013-03-17 10:55:00
4:15 AM,33.8,23.0,65,30.03,10.0,South,4.6,-,N/A,,Unknown,190,2013-03-17 11:15:00
4:35 AM,33.8,24.8,70,30.03,10.0,SSW,9.2,-,N/A,,Unknown,210,2013-03-17 11:35:00
4:55 AM,32.0,23.0,69,30.03,10.0,SW,10.4,-,N/A,,Unknown,230,2013-03-17 11:55:00
5:15 AM,30.2,24.8,80,30.04,10.0,SSW,4.6,-,N/A,,Unknown,210,2013-03-17 12:15:00
5:35 AM,30.2,24.8,80,30.05,10.0,SW,5.8,-,N/A,,Unknown,230,2013-03-17 12:35:00
5:55 AM,28.4,23.0,80,30.05,10.0,SW,5.8,-,N/A,,Unknown,230,2013-03-17 12:55:00
6:15 AM,26.6,21.2,80,30.05,10.0,SW,11.5,-,N/A,,Unknown,230,2013-03-17 13:15:00
6:35 AM,28.4,24.8,86,30.06,10.0,WSW,11.5,-,N/A,,Unknown,240,2013-03-17 13:35:00
6:55 AM,28.4,23.0,80,30.07,10.0,South,6.9,-,N/A,,Unknown,190,2013-03-17 13:55:00
7:15 AM,26.6,23.0,86,30.08,10.0,SSE,6.9,-,N/A,,Unknown,150,2013-03-17 14:15:00
7:35 AM,26.6,23.0,86,30.09,10.0,SW,8.1,-,N/A,,Unknown,220,2013-03-17 14:35:00
7:55 AM,28.4,24.8,86,30.10,10.0,SW,9.2,-,N/A,,Unknown,230,2013-03-17 14:55:00
8:15 AM,33.8,24.8,70,30.11,10.0,SW,9.2,-,N/A,,Unknown,230,2013-03-17 15:15:00
8:35 AM,33.8,24.8,70,30.11,10.0,SW,8.1,-,N/A,,Unknown,220,2013-03-17 15:35:00
8:55 AM,35.6,24.8,65,30.12,10.0,SW,11.5,-,N/A,,Unknown,230,2013-03-17 15:55:00
9:15 AM,35.6,23.0,60,30.12,10.0,WSW,10.4,-,N/A,,Unknown,240,2013-03-17 16:15:00
9:35 AM,37.4,23.0,56,30.12,10.0,WSW,8.1,-,N/A,,Unknown,250,2013-03-17 16:35:00
9:55 AM,37.4,21.2,52,30.12,10.0,WSW,9.2,17.3,N/A,,Unknown,240,2013-03-17 16:55:00
10:15 AM,37.4,19.4,48,30.13,10.0,SW,8.1,-,N/A,,Unknown,230,2013-03-17 17:15:00
10:35 AM,39.2,19.4,45,30.13,10.0,SSW,5.8,-,N/A,,Unknown,210,2013-03-17 17:35:00
10:55 AM,39.2,19.4,45,30.13,10.0,SW,9.2,-,N/A,,Unknown,230,2013-03-17 17:55:00
11:15 AM,42.8,21.2,42,30.13,10.0,West,12.7,-,N/A,,Unknown,260,2013-03-17 18:15:00
11:35 AM,42.8,17.6,36,30.13,10.0,SW,9.2,-,N/A,,Unknown,230,2013-03-17 18:35:00
11:55 AM,42.8,19.4,39,30.12,10.0,South,6.9,-,N/A,,Unknown,190,2013-03-17 18:55:00
12:15 PM,44.6,17.6,34,30.12,10.0,WSW,9.2,-,N/A,,Unknown,250,2013-03-17 19:15:00
12:35 PM,44.6,21.2,39,30.12,10.0,South,5.8,-,N/A,,Unknown,190,2013-03-17 19:35:00
12:55 PM,42.8,26.6,53,30.11,10.0,SSW,9.2,-,N/A,,Unknown,200,2013-03-17 19:55:00
1:15 PM,44.6,23.0,43,30.10,10.0,SE,8.1,-,N/A,,Unknown,140,2013-03-17 20:15:00
1:35 PM,44.6,21.2,39,30.10,10.0,SSE,10.4,16.1,N/A,,Unknown,160,2013-03-17 20:35:00
1:55 PM,46.4,23.0,40,30.09,10.0,South,9.2,18.4,N/A,,Unknown,180,2013-03-17 20:55:00
2:15 PM,46.4,24.8,43,30.08,10.0,South,11.5,19.6,N/A,,Unknown,190,2013-03-17 21:15:00
2:35 PM,48.2,19.4,32,30.08,10.0,West,9.2,-,N/A,,Unknown,260,2013-03-17 21:35:00
2:55 PM,48.2,21.2,34,30.07,10.0,SW,10.4,18.4,N/A,,Unknown,220,2013-03-17 21:55:00
3:15 PM,48.2,21.2,34,30.07,10.0,SW,11.5,19.6,N/A,,Unknown,230,2013-03-17 22:15:00
3:35 PM,50.0,19.4,30,30.07,10.0,SW,12.7,20.7,N/A,,Unknown,230,2013-03-17 22:35:00
3:55 PM,50.0,19.4,30,30.07,10.0,WSW,15.0,19.6,N/A,,Unknown,250,2013-03-17 22:55:00
4:15 PM,50.0,21.2,32,30.07,10.0,WSW,18.4,21.9,N/A,,Unknown,250,2013-03-17 23:15:00
4:35 PM,48.2,19.4,32,30.07,10.0,WSW,12.7,19.6,N/A,,Unknown,250,2013-03-17 23:35:00
4:55 PM,48.2,19.4,32,30.07,10.0,WSW,11.5,21.9,N/A,,Unknown,240,2013-03-17 23:55:00
5:15 PM,50.0,19.4,30,30.07,10.0,WSW,17.3,23.0,N/A,,Unknown,250,2013-03-18 00:15:00
5:35 PM,48.2,19.4,32,30.07,10.0,WSW,13.8,-,N/A,,Unknown,250,2013-03-18 00:35:00
5:55 PM,48.2,17.6,30,30.07,10.0,WSW,12.7,18.4,N/A,,Unknown,240,2013-03-18 00:55:00
6:15 PM,46.4,17.6,32,30.07,10.0,SW,10.4,17.3,N/A,,Unknown,230,2013-03-18 01:15:00
6:35 PM,44.6,19.4,37,30.07,10.0,WSW,12.7,-,N/A,,Unknown,240,2013-03-18 01:35:00
6:55 PM,44.6,19.4,37,30.07,10.0,WSW,11.5,-,N/A,,Unknown,240,2013-03-18 01:55:00
7:15 PM,41.0,19.4,42,30.07,10.0,WSW,6.9,-,N/A,,Unknown,250,2013-03-18 02:15:00
7:35 PM,37.4,19.4,48,30.07,10.0,WSW,4.6,-,N/A,,Unknown,250,2013-03-18 02:35:00
7:55 PM,37.4,19.4,48,30.08,10.0,West,5.8,-,N/A,,Unknown,260,2013-03-18 02:55:00
8:15 PM,33.8,19.4,56,30.08,10.0,SW,8.1,-,N/A,,Unknown,220,2013-03-18 03:15:00
8:35 PM,35.6,19.4,52,30.08,10.0,SW,9.2,-,N/A,,Unknown,230,2013-03-18 03:35:00
8:55 PM,33.8,19.4,56,30.09,10.0,SW,8.1,-,N/A,,Unknown,220,2013-03-18 03:55:00
9:15 PM,33.8,19.4,56,30.10,10.0,WSW,12.7,-,N/A,,Unknown,240,2013-03-18 04:15:00
9:35 PM,33.8,21.2,60,30.10,10.0,WSW,8.1,-,N/A,,Unknown,240,2013-03-18 04:35:00
9:55 PM,30.2,21.2,69,30.11,10.0,SW,6.9,-,N/A,,Unknown,230,2013-03-18 04:55:00
10:15 PM,32.0,21.2,64,30.10,10.0,SW,6.9,-,N/A,,Unknown,220,2013-03-18 05:15:00
10:35 PM,32.0,19.4,60,30.10,10.0,SW,5.8,-,N/A,,Unknown,230,2013-03-18 05:35:00
10:55 PM,32.0,19.4,60,30.10,10.0,SSW,4.6,-,N/A,,Unknown,200,2013-03-18 05:55:00
11:15 PM,30.2,19.4,64,30.10,10.0,SW,4.6,-,N/A,,Unknown,220,2013-03-18 06:15:00
11:35 PM,32.0,21.2,64,30.10,10.0,Calm,Calm,-,N/A,,Unknown,0,2013-03-18 06:35:00
11:55 PM,28.4,21.2,74,30.11,10.0,SSE,4.6,-,N/A,,Unknown,160,2013-03-18 06:55:00